Matsuyama Airport
RJOM : now visible

Airfield :











YOU CAN JOIN US ON...

 
LOGIN :

Register | Disclaimer

   EN    FR    IT 

 









Legend :    VFR   Marginal VFR   IFR   Intensive IFR   Very Intensive IFR
Visi :
Ceiling :
>= 8 km
>= 3000ft
5 to 8 km
1000 to 3000 ft
1500m to 5 km
500 to 1000 ft
800 to 1500m
200 to 500 ft
< 800m
< 200 ft
Symbols :   Thunderstorms  Fog  Heavy snow  Heavy precipitations  Wind > 20 kt






- Airport Elevation : 25 ft
- IATA code : MYJ


RJOM - Matsuyama

CURRENT METAR :
  • 091200Z 18007KT 9999 FEW025 SCT100 BKN140 31/22 Q1010

EXPIRED METARs :
  • 091100Z 18009KT 9999 FEW020 SCT090 BKN120 31/22 Q1010

TAF TAF RJOM
Valid from the 09 at 12:00 until the 10 at 18:00 UTC


091105Z 0912/1018 18007KT 9999 FEW025 SCT070
BECMG 0921/0923 34008KT
BECMG 1006/1009 17010KT
RJJJ FIR / Asia



MET'MAP, your aeronautical weather chart ! - Copyright ORBIFLY December 2007 - Disclaimer

ORBIFLY MET'MAP TEAM :

Programming & Development : Alexandra Zaïnal
Concept & original design : Baudouin d'Aumeries
Assistance for programming : Marc-Olivier Méhu
Technical & hardware support : Manuel Goepfert

Contact : metmap@orbifly.com




SOURCES & CREDITS :

   NOAA       Earth
Advisory